Find Starlink 3287

NORAD ID: 50172 Int'l Des: 2021-125 Owner: SPXS Country: US Constellation: starlink operational
LEOCIRCULAR

当前视图

正在加载3D地球...

About Starlink 3287

Starlink 3287 (NORAD 50172) is a starlink constellation satellite (v1.5) launched Dec 18, 2021 by SPXS of US. It operates in LEO, CIRCULAR orbit with a mass of 290.00 kg.

关于 Starlink 3287

正在加载描述...

即将过境

Passes for default location (London). Set your location on the main map for personalized predictions.

高度历史

Loading altitude history...

两行轨道根数

1 50172U 21125S 26170.10892122 .00000593 00000-0 55352-4 0 9998
2 50172 53.1593 153.7255 0001347 81.8975 278.2169 15.08831968251949
Epoch: Jun 19, 2026 • Age: 7 hours

当前状态

高度 557.1 km
速度 7.58 km/s
星下点 -47.85°S, 30.88°W
发射日期 Dec 18, 2021
运行时间 4.4 years
类型 internet

技术详情

分类 Payload
质量 290.00 kg
干质量 270.00 kg
总质量 290.00 kg
长度 0.20 m
直径 2.80 m
跨度 9.00 m
形状 Box + pan
制造商 SPXS
平台类型 Starlink
阶段状态 In Orbit
所有者/国家 SPXS/US

Most Searched